{"data":{"norad_id":40147,"epoch":"2026-09-19T20:39:23.993568Z","epoch_age_seconds":77079,"freshness":"FRESH","line1":"1 40147U 14054B   26262.86069437 -.00000246  00000+0  00000+0 0  9992","line2":"2 40147   0.0463  44.1946 0001140  69.1461 286.7857  1.00269950 43868","mean_motion":1.0026995,"eccentricity":0.000114,"inclination_deg":0.0463,"raan_deg":44.1946,"arg_perigee_deg":69.1461,"mean_anomaly_deg":286.7857,"bstar":0,"rev_number":4386,"period_min":1436.1231854608,"perigee_km":35782.30254806,"apogee_km":35791.916224236,"semimajor_km":42165.246386148,"source":"CELESTRAK","updated_at":"2026-09-20T09:00:35.212146Z"}}